Theta_e
296 294 294 295 300 301 302 302 311 303 301 310 308 313 305 302 303 303 304 305 304 305 304 304 304 303 304 302 301 302 301 310 302 301 299 300 299 300 301 305 305 302 302 302
296 295 295 296 300 301 303 306 306 302 303 313 311 304 303 303 303 303 304 304 304 304 304 304 303 303 301 301 301 302 301 303 306 300 301 300 301 302 299 300 300 303 304 303
296 295 295 296 300 301 302 306 307 307 305 304 306 305 304 303 302 303 303 303 303 304 304 303 303 302 301 300 301 301 301 302 306 306 305 304 303 301 298 302 303 303 302 301
295 295 295 296 300 301 302 304 306 306 308 310 306 306 304 304 303 302 303 303 304 304 304 303 303 302 301 301 302 301 302 304 302 303 300 299 299 300 299 298 300 301 300 300
295 296 296 296 298 301 302 301 307 303 305 304 305 305 305 304 302 303 302 303 303 303 304 304 305 302 302 302 303 302 301 303 299 299 298 298 299 299 299 299 299 299 300 300
295 296 296 295 298 301 303 301 300 307 303 304 307 306 304 304 303 302 303 303 303 302 302 302 303 302 302 303 303 302 302 302 300 302 297 298 300 300 300 300 300 300 301 301
296 297 296 295 298 301 302 302 303 310 307 305 304 304 303 303 303 303 302 303 303 301 300 301 301 301 301 301 300 301 301 300 301 303 299 302 301 299 300 301 302 301 300 301
297 297 296 295 299 301 301 300 303 309 308 305 304 304 304 303 303 302 302 301 300 300 301 303 305 300 300 300 300 300 300 301 303 303 301 300 300 300 299 300 300 301 301 301
296 296 296 295 299 300 300 298 299 305 310 306 303 304 303 305 304 302 299 298 298 300 304 308 305 305 301 302 301 299 300 301 302 300 302 302 301 301 301 301 302 301 301 302
296 296 296 295 298 300 299 297 297 302 304 301 302 305 304 303 304 305 300 299 299 300 307 307 304 303 299 302 303 301 301 301 303 303 302 301 300 300 300 300 305 301 301 302
295 296 296 297 299 299 299 296 296 300 303 300 300 299 301 301 304 307 301 303 301 303 310 306 304 304 301 301 301 301 302 303 303 302 302 302 299 298 300 302 302 301 301 301
295 296 298 298 299 298 298 298 296 297 299 300 298 297 297 298 300 302 300 303 301 304 305 303 302 302 302 301 302 301 302 301 303 302 303 301 300 301 301 301 301 300 300 299
295 296 298 298 298 298 298 298 296 298 300 299 300 299 296 297 296 297 303 299 300 300 299 302 301 302 300 303 301 300 300 300 302 301 300 300 299 299 299 298 298 298 298 298
295 295 296 298 298 297 297 297 295 297 300 303 298 295 295 295 296 297 298 298 296 296 299 303 303 302 299 300 300 299 299 299 298 299 299 298 298 298 298 298 298 298 297 297
295 295 295 295 296 297 296 296 295 295 301 300 298 295 293 295 297 297 297 297 299 301 302 303 302 299 299 299 299 299 299 299 299 299 298 298 298 298 299 299 298 298 298 298
295 295 295 296 296 296 296 297 296 295 296 302 299 293 294 296 296 297 297 297 299 300 302 301 299 299 299 300 299 298 297 297 297 297 297 297 299 299 298 299 299 298 298 298
295 295 296 296 295 295 295 298 296 294 293 301 296 296 293 294 295 295 297 296 298 300 300 299 298 298 298 299 298 297 296 296 297 297 297 296 297 298 296 296 297 297 298 298
295 295 295 294 294 295 294 293 293 293 295 297 297 296 296 293 297 297 294 296 298 298 298 297 296 297 297 299 297 296 296 296 296 296 296 296 294 293 293 295 296 297 298 297
295 294 293 293 293 296 294 292 292 291 295 297 296 298 299 294 295 296 295 295 297 295 298 297 297 297 297 297 296 295 295 295 295 295 294 295 295 295 294 293 294 295 295 296
293 293 294 296 294 293 292 293 295 296 294 294 295 294 297 297 297 297 297 295 297 298 296 296 297 297 296 295 295 294 294 294 294 294 294 294 294 294 294 295 294 293 294 293
293 294 294 293 291 293 293 294 295 294 294 293 293 294 295 294 297 297 296 297 296 297 296 296 296 297 296 294 293 293 293 293 293 293 293 293 293 293 293 293 293 293 293 293
293 293 293 292 293 293 294 293 293 293 293 293 294 294 294 293 294 296 295 296 295 295 295 296 296 297 294 294 294 293 292 292 292 292 291 291 290 290 290 290 289 289 289 291
292 293 292 294 292 294 294 294 294 294 294 294 294 295 295 294 294 295 296 296 296 295 295 295 297 295 294 293 292 292 291 291 290 290 289 288 288 288 288 288 288 288 288 288
293 293 291 293 293 292 292 294 295 295 295 296 296 294 295 295 295 295 295 294 295 295 295 296 296 293 292 291 291 291 291 291 290 289 289 288 287 286 286 286 286 287 288 287
291 292 292 292 292 293 294 293 293 292 293 295 295 294 295 294 294 294 295 295 295 294 297 295 293 292 292 292 292 291 292 291 290 290 289 287 286 286 285 285 285 285 286 286
291 291 291 292 293 293 293 292 292 292 293 293 294 294 293 293 293 294 294 294 296 295 294 292 291 291 292 291 290 290 290 290 290 290 289 287 286 285 285 285 285 285 286 286
290 291 291 292 293 293 291 291 291 290 291 291 291 291 292 293 293 293 295 295 293 291 291 290 289 289 288 288 288 289 288 288 289 289 288 286 285 285 285 285 285 285 286 286
Wind_Speed
30 30 28 27 28 27 14 5 4 0 9 4 1 3 6 4 9 2 4 5 6 9 7 5 4 6 2 7 8 4 2 2 3 2 2 1 1 3 4 3 2 3 4 4
30 30 29 28 30 26 9 4 4 4 1 4 4 4 5 3 8 7 5 4 2 4 7 4 6 5 3 9 6 6 6 1 3 5 4 3 5 3 4 3 1 9 3 2
31 30 30 29 30 24 6 4 4 2 1 1 10 9 8 6 2 4 6 8 6 9 6 3 8 8 4 6 4 6 3 3 3 3 2 3 4 6 9 6 5 5 11 13
32 30 28 28 29 23 4 2 2 3 5 3 9 8 11 12 6 3 7 4 5 9 6 7 6 7 9 5 10 4 2 2 2 6 9 10 13 10 14 15 15 9 8 12
31 28 26 27 27 20 2 4 4 3 3 12 13 7 10 14 7 10 9 6 12 8 6 6 9 10 8 6 9 7 4 2 2 4 6 11 17 17 17 20 22 23 22 25
31 28 27 26 27 17 3 3 3 4 5 10 9 9 13 14 11 4 4 11 12 8 7 6 9 5 7 8 8 11 6 5 3 2 2 9 12 18 19 18 17 15 19 23
30 27 26 26 26 15 4 4 5 3 4 9 9 11 11 17 4 9 7 11 8 6 17 15 11 10 7 7 5 7 6 7 3 2 4 5 3 2 4 11 14 15 19 18
30 27 25 25 24 14 5 7 3 3 5 8 9 14 16 15 13 13 12 6 4 19 6 4 4 1 2 1 4 7 7 6 3 3 5 13 10 5 10 9 12 9 16 17
29 27 25 24 22 14 10 8 7 4 6 6 8 11 17 13 7 6 5 8 8 3 2 2 4 4 3 4 5 3 8 8 5 2 4 4 4 3 1 2 11 3 8 12
29 26 24 23 21 15 13 7 9 5 4 3 5 4 11 8 7 6 6 7 3 2 2 2 3 3 1 6 7 6 6 5 11 9 5 7 6 7 1 5 2 2 2 5
28 26 23 22 21 17 12 8 7 4 3 4 5 3 5 5 6 6 10 5 1 2 3 4 3 3 5 3 4 6 9 8 5 6 5 7 5 2 5 7 4 6 9 10
28 26 23 22 21 16 16 7 14 14 11 4 8 12 10 7 5 7 8 1 7 5 3 3 3 3 3 5 3 7 5 5 3 8 5 2 1 10 9 10 13 16 17 16
28 26 23 22 19 17 11 12 15 10 6 6 5 6 8 10 10 3 4 2 4 4 3 3 2 3 4 4 5 4 7 5 4 2 7 10 11 13 14 15 14 15 15 19
28 26 23 20 17 13 17 11 10 7 7 4 4 3 5 7 5 8 4 13 8 9 2 2 2 2 3 2 3 5 2 5 7 11 12 9 10 8 17 18 22 21 24 23
27 25 22 19 17 16 18 17 11 8 2 4 5 7 7 7 9 12 12 13 8 2 2 2 2 1 3 2 3 7 7 7 5 4 10 10 15 19 24 20 20 22 20 21
26 24 21 20 20 19 12 4 4 7 6 4 4 2 6 9 14 14 12 8 5 2 2 2 2 1 3 3 3 1 2 2 4 6 11 12 16 19 24 22 25 28 27 28
28 25 24 22 17 10 7 3 5 8 8 3 5 4 3 4 4 4 5 6 3 1 2 2 2 3 3 3 4 7 2 6 8 8 7 10 13 16 26 27 29 28 28 27
29 27 22 21 23 18 10 13 9 7 7 4 4 4 4 1 3 3 2 2 1 2 2 1 2 3 3 4 3 1 4 8 7 8 12 8 9 12 17 23 26 20 16 21
31 28 24 14 8 4 6 12 14 12 7 3 2 6 4 4 3 3 3 1 2 1 2 2 3 3 5 3 2 1 5 6 9 10 7 8 9 10 13 16 19 17 18 24
33 13 6 3 5 15 5 3 3 5 5 3 3 1 4 3 3 2 3 1 3 3 2 3 3 4 1 3 1 1 4 4 2 5 8 9 11 13 15 15 16 16 15 15
6 4 3 11 6 3 3 3 3 1 3 2 3 2 6 1 3 3 1 3 3 3 4 3 3 2 4 3 2 1 3 5 7 10 12 14 14 14 14 18 21 21 21 19
7 16 11 4 2 2 4 3 2 1 3 3 4 4 3 3 1 2 2 2 2 2 5 3 3 3 4 4 2 2 5 9 12 13 15 16 18 18 19 21 22 22 23 22
9 6 4 1 2 3 3 5 3 4 4 4 5 4 2 3 1 2 3 4 3 3 3 2 3 4 3 2 3 6 8 9 11 13 15 16 18 20 20 21 22 22 23 23
3 3 5 1 3 2 2 4 6 5 7 8 6 4 2 2 2 2 3 2 3 3 4 2 5 5 4 4 6 8 10 13 14 15 16 17 19 22 21 20 20 22 24 26
4 3 4 3 4 5 7 8 9 6 5 5 5 4 2 2 2 1 1 4 4 3 2 3 4 3 5 8 11 13 13 15 14 17 15 16 16 18 23 23 23 23 24 24
3 4 5 7 9 8 8 8 7 4 4 3 3 3 2 2 2 3 4 2 0 3 3 3 4 6 8 11 15 18 21 23 23 23 19 17 17 18 22 27 25 23 22 25
3 3 5 4 9 9 6 6 4 2 2 2 2 3 2 3 2 2 2 3 3 2 4 6 8 10 13 18 19 20 22 24 24 21 17 18 22 19 19 21 27 27 26 25
Wind_Direction
175 171 167 165 163 158 146 131 110 258 140 106 98 156 141 127 151 133 111 112 106 155 158 151 153 161 89 158 158 137 74 87 141 96 130 281 273 198 197 240 158 256 301 288
176 172 168 167 164 160 146 98 104 35 355 140 154 141 126 133 157 156 136 118 122 146 155 128 136 140 113 157 169 161 168 143 142 162 161 184 239 178 87 102 253 224 236 261
175 172 169 168 168 168 137 131 113 76 32 303 155 155 162 139 102 116 107 116 118 137 150 94 154 143 140 174 162 110 145 177 252 301 66 118 205 185 196 197 209 239 228 271
174 172 170 170 172 174 155 44 131 149 174 209 166 162 164 157 152 135 156 138 183 162 146 152 152 146 137 150 140 135 198 213 236 260 252 243 258 220 205 209 220 228 269 268
173 171 170 172 174 175 136 129 144 131 132 153 159 149 178 171 139 161 174 184 165 166 155 176 179 165 176 172 180 172 169 220 241 272 257 261 266 259 238 230 241 246 256 272
172 171 171 174 174 166 132 129 107 119 152 163 163 177 162 174 143 67 165 156 149 157 113 85 113 131 149 158 168 183 175 172 184 252 316 301 272 249 235 236 239 239 246 253
171 171 172 174 173 173 143 148 137 111 149 177 178 162 156 155 144 132 130 148 145 111 114 107 93 80 95 143 132 184 190 171 185 275 259 242 77 170 238 242 256 249 246 259
170 170 172 174 174 176 149 147 132 117 123 170 153 155 137 118 103 99 116 69 82 142 138 109 107 91 119 220 212 196 199 186 207 258 242 298 277 206 217 219 280 232 251 254
167 168 171 174 173 171 152 134 113 109 122 196 154 142 156 139 124 114 91 96 119 105 90 117 189 193 125 169 160 209 205 230 222 192 252 266 87 115 165 246 274 22 243 254
166 167 169 171 171 165 154 128 124 95 104 110 169 141 158 140 125 111 128 150 133 332 122 146 190 189 174 180 183 170 168 205 219 220 262 277 300 185 281 255 357 14 259 282
161 162 163 164 165 161 151 124 123 96 93 77 41 76 133 127 137 142 146 120 180 116 150 192 182 205 191 212 203 182 175 175 193 202 232 256 180 163 228 12 333 316 300 294
157 158 156 157 157 163 151 103 107 99 82 91 80 78 56 52 75 122 165 49 139 157 132 199 147 171 179 213 238 196 218 213 201 201 224 66 206 290 302 305 299 299 296 295
155 154 150 153 154 156 154 131 119 89 102 92 87 55 36 63 62 98 118 151 135 170 21 141 135 198 194 197 236 242 220 205 226 209 254 273 300 302 295 297 297 301 293 290
153 152 151 150 152 154 157 134 122 98 111 109 92 51 45 14 43 58 80 128 116 122 128 104 140 186 229 246 319 256 3 173 244 265 280 312 289 317 314 309 302 297 294 291
150 149 149 151 148 143 138 107 85 95 68 110 114 103 28 36 78 82 95 115 120 130 101 101 153 114 217 203 282 254 219 250 244 274 348 325 309 316 311 306 302 297 297 294
146 144 143 143 139 137 121 67 53 86 107 110 129 95 52 70 86 88 74 67 65 71 109 134 158 72 219 246 254 237 185 331 356 317 318 313 306 309 316 315 308 301 297 289
141 140 137 139 139 137 73 84 121 121 98 101 124 112 85 89 76 61 58 52 64 62 101 195 196 180 201 252 253 121 13 323 321 315 331 310 325 329 332 328 317 305 293 290
140 133 127 117 109 85 64 61 78 89 94 68 108 96 134 151 118 107 40 80 52 38 108 135 218 138 225 250 205 21 332 325 313 336 339 358 327 334 342 348 352 340 324 316
136 126 114 99 60 77 114 84 71 68 68 102 92 141 138 150 99 107 109 151 137 94 221 207 200 195 226 249 173 322 339 328 325 343 332 338 341 343 355 1 6 8 0 350
132 117 70 76 77 119 95 41 38 26 27 44 82 147 119 180 153 110 132 165 155 195 153 134 235 255 208 150 300 14 48 52 323 352 357 350 349 348 346 347 349 347 347 359
124 85 74 119 113 94 47 68 48 94 86 63 85 83 127 95 150 120 321 153 168 215 134 222 233 254 138 167 152 267 326 322 318 320 322 325 326 325 327 326 329 332 333 330
135 119 113 97 70 78 88 70 116 63 103 118 133 108 79 104 87 127 155 155 185 202 140 214 234 84 143 153 167 296 316 318 317 321 319 322 324 326 324 321 324 325 324 320
94 77 89 121 30 96 154 148 128 127 144 148 147 116 98 129 115 100 162 176 184 129 201 227 48 111 77 48 345 320 318 313 312 316 324 327 329 330 329 324 324 323 320 321
73 84 93 25 115 96 96 105 118 100 127 129 120 103 100 98 139 130 167 140 183 217 214 155 87 55 33 8 342 314 306 304 303 312 318 324 325 324 323 321 318 317 312 312
77 67 83 83 98 96 100 110 109 96 122 133 122 102 109 88 118 166 170 191 214 220 65 78 59 30 320 295 293 291 293 294 294 305 308 304 308 312 311 315 312 309 300 301
66 74 100 127 112 117 113 110 103 93 106 103 71 106 116 125 155 182 204 239 102 78 53 18 322 294 277 287 292 290 292 297 295 295 295 299 301 305 304 309 310 307 305 301
62 76 95 105 121 121 114 112 86 101 121 86 111 129 117 128 203 211 34 33 57 41 342 314 306 307 308 303 299 299 301 302 300 296 289 289 299 305 304 304 308 313 312 306